Location: Newark
(50.4348°N, 30.5552°E)
Time: 03:18:39
(UTC+00:00)

Altair - Pass Details

Date: 25 January 2020
Orbit: 1502 x 1682 km, 47.2° (Epoch: 16 February)

Event Time Altitude Azimuth Distance (km) Brightness Sun altitude
Rises 09:55:51 0° 270° (W) 4,927 10.1 20.5°
Reaches altitude 10° 09:59:01 10° 269° (W) 3,945 9.7 20.5°
Maximum altitude 10:09:09 74° 187° (S) 1,734 8.5 20.5°
Drops below altitude 10° 10:19:08 10° 105° (ESE) 3,894 9.9 20.5°
Sets 10:22:14 0° 104° (ESE) 4,861 10.3 20.5°
